Location: Del Amo
(33.8464°N, 118.2104°W)
Time: 18:15:04
(UTC+00:00)

Vanguard 3 - Pass Details

Date: 15 September 2024
Orbit: 507 x 3224 km, 33.4° (Epoch: 05 October)

Event Time Altitude Azimuth Distance (km) Brightness Sun altitude
Rises 14:08:04 0° 237° (WSW) 6,511 11.2 5.7°
Reaches altitude 10° 14:12:03 10° 235° (SW) 5,729 11.0 6.5°
Maximum altitude 14:30:53 70° 157° (SSE) 3,351 10.6 10.4°
Drops below altitude 10° 14:48:33 10° 78° (ENE) 5,434 13.1 14.1°
Sets 14:52:11 0° 77° (ENE) 6,177 13.0 14.8°
